����������;��������(kVARh)
2017-08-21 00:00;8,5
2017-08-21 00:15;11,75
2017-08-21 00:30;13,5
2017-08-21 00:45;13,6
2017-08-21 01:00;15,15
2017-08-21 01:15;11,3
2017-08-21 01:30;9,3
2017-08-21 01:45;10,45
2017-08-21 02:00;11,5
2017-08-21 02:15;12,35
2017-08-21 02:30;12,2
2017-08-21 02:45;11,8
2017-08-21 03:00;12,25
2017-08-21 03:15;12,9
2017-08-21 03:30;13,55
2017-08-21 03:45;11,85
2017-08-21 04:00;10,8
2017-08-21 04:15;10,05
2017-08-21 04:30;12,2
2017-08-21 04:45;11,3
2017-08-21 05:00;11
2017-08-21 05:15;10,65
2017-08-21 05:30;10,35
2017-08-21 05:45;10,9
2017-08-21 06:00;12,55
2017-08-21 06:15;11,15
2017-08-21 06:30;11,8
2017-08-21 06:45;11,6
2017-08-21 07:00;13,7
2017-08-21 07:15;17,4
2017-08-21 07:30;16,75
2017-08-21 07:45;17,5
2017-08-21 08:00;17,25
2017-08-21 08:15;52,9
2017-08-21 08:30;59,5
2017-08-21 08:45;60,25
2017-08-21 09:00;63,15
2017-08-21 09:15;53,55
2017-08-21 09:30;66,9
2017-08-21 09:45;64,85
2017-08-21 10:00;70,45
2017-08-21 10:15;58,7
2017-08-21 10:30;56,05
2017-08-21 10:45;58,45
2017-08-21 11:00;56,85
2017-08-21 11:15;82,15
2017-08-21 11:30;99,05
2017-08-21 11:45;88,8
2017-08-21 12:00;76,6
2017-08-21 12:15;77,2
2017-08-21 12:30;86,3
2017-08-21 12:45;91,55
2017-08-21 13:00;93,95
2017-08-21 13:15;94,7
2017-08-21 13:30;93,15
2017-08-21 13:45;93,2
2017-08-21 14:00;90,5
2017-08-21 14:15;92,95
2017-08-21 14:30;91,35
2017-08-21 14:45;89,15
2017-08-21 15:00;89,35
2017-08-21 15:15;86,75
2017-08-21 15:30;86,55
2017-08-21 15:45;85,95
2017-08-21 16:00;85,15
2017-08-21 16:15;83,95
2017-08-21 16:30;82,15
2017-08-21 16:45;72,55
2017-08-21 17:00;72,6
2017-08-21 17:15;68,9
2017-08-21 17:30;68,3
2017-08-21 17:45;68,25
2017-08-21 18:00;64,5
2017-08-21 18:15;62,55
2017-08-21 18:30;62,95
2017-08-21 18:45;61,35
2017-08-21 19:00;47,8
2017-08-21 19:15;39,65
2017-08-21 19:30;39,4
2017-08-21 19:45;38,55
2017-08-21 20:00;36,95
2017-08-21 20:15;29,75
2017-08-21 20:30;28,25
2017-08-21 20:45;32
2017-08-21 21:00;31,85
2017-08-21 21:15;34,7
2017-08-21 21:30;32,05
2017-08-21 21:45;32,05
2017-08-21 22:00;29,45
2017-08-21 22:15;33,2
2017-08-21 22:30;25,95
2017-08-21 22:45;19,7
2017-08-21 23:00;22,3
2017-08-21 23:15;17,45
2017-08-21 23:30;18,8
2017-08-21 23:45;19,7
2017-08-22 00:00;19,15
2017-08-22 00:15;19
2017-08-22 00:30;16,5
2017-08-22 00:45;17
2017-08-22 01:00;15,75
2017-08-22 01:15;16,6
2017-08-22 01:30;10,7
2017-08-22 01:45;1,75
2017-08-22 02:00;0,4
2017-08-22 02:15;1,05
2017-08-22 02:30;0,05
2017-08-22 02:45;0,85
2017-08-22 03:00;0,7
2017-08-22 03:15;1,6
2017-08-22 03:30;1,35
2017-08-22 03:45;2
2017-08-22 04:00;0,9
2017-08-22 04:15;1,8
2017-08-22 04:30;1
2017-08-22 04:45;0,85
2017-08-22 05:00;2,05
2017-08-22 05:15;1,9
2017-08-22 05:30;3
2017-08-22 05:45;2,2
2017-08-22 06:00;2,15
2017-08-22 06:15;2,8
2017-08-22 06:30;5,7
2017-08-22 06:45;11,4
2017-08-22 07:00;9,55
2017-08-22 07:15;12,4
2017-08-22 07:30;51,65
2017-08-22 07:45;54,9
2017-08-22 08:00;36,25
2017-08-22 08:15;27
2017-08-22 08:30;31,2
2017-08-22 08:45;38,85
2017-08-22 09:00;30,05
2017-08-22 09:15;41
2017-08-22 09:30;54
2017-08-22 09:45;60,5
2017-08-22 10:00;66,15
2017-08-22 10:15;60,85
2017-08-22 10:30;64,7
2017-08-22 10:45;72,9
2017-08-22 11:00;80,6
2017-08-22 11:15;83,3
2017-08-22 11:30;87,5
2017-08-22 11:45;83,3
2017-08-22 12:00;90,95
2017-08-22 12:15;85,25
2017-08-22 12:30;88,1
2017-08-22 12:45;86,85
2017-08-22 13:00;97,8
2017-08-22 13:15;96
2017-08-22 13:30;89,6
2017-08-22 13:45;88,35
2017-08-22 14:00;76,85
2017-08-22 14:15;76,95
2017-08-22 14:30;75,05
2017-08-22 14:45;75,4
2017-08-22 15:00;76,8
2017-08-22 15:15;73,2
2017-08-22 15:30;70,45
2017-08-22 15:45;67,9
2017-08-22 16:00;68,1
2017-08-22 16:15;67,45
2017-08-22 16:30;65,25
2017-08-22 16:45;66,05
2017-08-22 17:00;60,45
2017-08-22 17:15;52,2
2017-08-22 17:30;51,75
2017-08-22 17:45;52,25
2017-08-22 18:00;48,9
2017-08-22 18:15;46
2017-08-22 18:30;43,05
2017-08-22 18:45;43,75
2017-08-22 19:00;42,55
2017-08-22 19:15;36,4
2017-08-22 19:30;37,35
2017-08-22 19:45;34,75
2017-08-22 20:00;37,95
2017-08-22 20:15;33,05
2017-08-22 20:30;27,1
2017-08-22 20:45;27,65
2017-08-22 21:00;26,1
2017-08-22 21:15;27,4
2017-08-22 21:30;27,8
2017-08-22 21:45;26,5
2017-08-22 22:00;24,7
2017-08-22 22:15;27,85
2017-08-22 22:30;26,4
2017-08-22 22:45;19,8
2017-08-22 23:00;15,4
2017-08-22 23:15;10,65
2017-08-22 23:30;11,05
2017-08-22 23:45;10,25
2017-08-23 00:00;9,85
2017-08-23 00:15;11,4
2017-08-23 00:30;12,3
2017-08-23 00:45;7,45
2017-08-23 01:00;8,3
2017-08-23 01:15;5,3
2017-08-23 01:30;4,55
2017-08-23 01:45;5,1
2017-08-23 02:00;5,95
2017-08-23 02:15;6,35
2017-08-23 02:30;5,75
2017-08-23 02:45;8,4
2017-08-23 03:00;7,8
2017-08-23 03:15;8,55
2017-08-23 03:30;8,2
2017-08-23 03:45;7,4
2017-08-23 04:00;8,45
2017-08-23 04:15;5,35
2017-08-23 04:30;5,85
2017-08-23 04:45;5
2017-08-23 05:00;4,8
2017-08-23 05:15;5,7
2017-08-23 05:30;4
2017-08-23 05:45;3,95
2017-08-23 06:00;2,55
2017-08-23 06:15;5,65
2017-08-23 06:30;21,6
2017-08-23 06:45;27,15
2017-08-23 07:00;22,35
2017-08-23 07:15;23,45
2017-08-23 07:30;25,8
2017-08-23 07:45;33,4
2017-08-23 08:00;37,8
2017-08-23 08:15;40,4
2017-08-23 08:30;40,7
2017-08-23 08:45;42,85
2017-08-23 09:00;43,3
2017-08-23 09:15;56,8
2017-08-23 09:30;80,15
2017-08-23 09:45;88,95
2017-08-23 10:00;68,15
2017-08-23 10:15;64,2
2017-08-23 10:30;58,8
2017-08-23 10:45;64,2
2017-08-23 11:00;67,85
2017-08-23 11:15;60,05
2017-08-23 11:30;68,9
2017-08-23 11:45;100,4
2017-08-23 12:00;82,8
2017-08-23 12:15;79,25
2017-08-23 12:30;86,1
2017-08-23 12:45;86,9
2017-08-23 13:00;85,75
2017-08-23 13:15;83,35
2017-08-23 13:30;82,05
2017-08-23 13:45;85,4
2017-08-23 14:00;86,35
2017-08-23 14:15;84,2
2017-08-23 14:30;73,65
2017-08-23 14:45;68,8
2017-08-23 15:00;67,3
2017-08-23 15:15;67,9
2017-08-23 15:30;68,75
2017-08-23 15:45;64,35
2017-08-23 16:00;68,95
2017-08-23 16:15;67,8
2017-08-23 16:30;61,05
2017-08-23 16:45;75,75
2017-08-23 17:00;70,05
2017-08-23 17:15;66,5
2017-08-23 17:30;65,1
2017-08-23 17:45;61,4
2017-08-23 18:00;61,8
2017-08-23 18:15;52,25
2017-08-23 18:30;50,85
2017-08-23 18:45;51
2017-08-23 19:00;50,25
2017-08-23 19:15;47,35
2017-08-23 19:30;37,4
2017-08-23 19:45;34,6
2017-08-23 20:00;28,25
2017-08-23 20:15;24,45
2017-08-23 20:30;21,65
2017-08-23 20:45;19,9
2017-08-23 21:00;19,2
2017-08-23 21:15;21,5
2017-08-23 21:30;20,9
2017-08-23 21:45;18,35
2017-08-23 22:00;15,35
2017-08-23 22:15;13,35
2017-08-23 22:30;9,95
2017-08-23 22:45;8,1
2017-08-23 23:00;13,15
2017-08-23 23:15;6,6
2017-08-23 23:30;7
2017-08-23 23:45;6,75
2017-08-24 00:00;7
2017-08-24 00:15;9,4
2017-08-24 00:30;12,35
2017-08-24 00:45;15,5
2017-08-24 01:00;14,35
2017-08-24 01:15;14,95
2017-08-24 01:30;14,5
2017-08-24 01:45;9,95
2017-08-24 02:00;10,35
2017-08-24 02:15;10,75
2017-08-24 02:30;11,35
2017-08-24 02:45;11,3
2017-08-24 03:00;10,85
2017-08-24 03:15;12,35
2017-08-24 03:30;12,9
2017-08-24 03:45;13,4
2017-08-24 04:00;9
2017-08-24 04:15;2,7
2017-08-24 04:30;1,8
2017-08-24 04:45;2,7
2017-08-24 05:00;3,65
2017-08-24 05:15;2,9
2017-08-24 05:30;2,65
2017-08-24 05:45;3,2
2017-08-24 06:00;2,65
2017-08-24 06:15;2,75
2017-08-24 06:30;11,9
2017-08-24 06:45;27,45
2017-08-24 07:00;21,55
2017-08-24 07:15;26,2
2017-08-24 07:30;44,4
2017-08-24 07:45;57,3
2017-08-24 08:00;57,3
2017-08-24 08:15;36,15
2017-08-24 08:30;38,55
2017-08-24 08:45;47,05
2017-08-24 09:00;47,1
2017-08-24 09:15;46,55
2017-08-24 09:30;47,5
2017-08-24 09:45;50,15
2017-08-24 10:00;53,8
2017-08-24 10:15;57,7
2017-08-24 10:30;62,7
2017-08-24 10:45;53,05
2017-08-24 11:00;54,8
2017-08-24 11:15;56,75
2017-08-24 11:30;55,45
2017-08-24 11:45;57,1
2017-08-24 12:00;57
2017-08-24 12:15;56,75
2017-08-24 12:30;84,75
2017-08-24 12:45;92,15
2017-08-24 13:00;86,95
2017-08-24 13:15;72,35
2017-08-24 13:30;72,05
2017-08-24 13:45;78,4
2017-08-24 14:00;69,85
2017-08-24 14:15;82,55
2017-08-24 14:30;78,9
2017-08-24 14:45;65,05
2017-08-24 15:00;62,4
2017-08-24 15:15;63,3
2017-08-24 15:30;60
2017-08-24 15:45;60,05
2017-08-24 16:00;58,8
2017-08-24 16:15;62,45
2017-08-24 16:30;63
2017-08-24 16:45;66,05
2017-08-24 17:00;63
2017-08-24 17:15;60,6
2017-08-24 17:30;58,45
2017-08-24 17:45;52,25
2017-08-24 18:00;45,75
2017-08-24 18:15;41,2
2017-08-24 18:30;37,4
2017-08-24 18:45;36,55
2017-08-24 19:00;31,1
2017-08-24 19:15;29,3
2017-08-24 19:30;26,4
2017-08-24 19:45;28,7
2017-08-24 20:00;31
2017-08-24 20:15;25,65
2017-08-24 20:30;26,25
2017-08-24 20:45;26,8
2017-08-24 21:00;24,8
2017-08-24 21:15;23,8
2017-08-24 21:30;26,8
2017-08-24 21:45;29,3
2017-08-24 22:00;24,6
2017-08-24 22:15;29,4
2017-08-24 22:30;27,4
2017-08-24 22:45;24,8
2017-08-24 23:00;28,55
2017-08-24 23:15;26
2017-08-24 23:30;23,65
2017-08-24 23:45;6,85
2017-08-25 00:00;9,7
2017-08-25 00:15;10,35
2017-08-25 00:30;7,3
2017-08-25 00:45;6,8
2017-08-25 01:00;8,4
2017-08-25 01:15;8,3
2017-08-25 01:30;9,6
2017-08-25 01:45;7,9
2017-08-25 02:00;9,2
2017-08-25 02:15;10,85
2017-08-25 02:30;10,45
2017-08-25 02:45;9,4
2017-08-25 03:00;12,7
2017-08-25 03:15;19,1
2017-08-25 03:30;21,4
2017-08-25 03:45;20,1
2017-08-25 04:00;21
2017-08-25 04:15;20,7
2017-08-25 04:30;20,5
2017-08-25 04:45;21,5
2017-08-25 05:00;20,35
2017-08-25 05:15;19,95
2017-08-25 05:30;19,6
2017-08-25 05:45;20,3
2017-08-25 06:00;19,95
2017-08-25 06:15;20,7
2017-08-25 06:30;18,35
2017-08-25 06:45;28,65
2017-08-25 07:00;29,15
2017-08-25 07:15;36,75
2017-08-25 07:30;38,85
2017-08-25 07:45;40,6
2017-08-25 08:00;41,9
2017-08-25 08:15;39,2
2017-08-25 08:30;43,7
2017-08-25 08:45;45,5
2017-08-25 09:00;45,55
2017-08-25 09:15;44,3
2017-08-25 09:30;43,5
2017-08-25 09:45;55,55
2017-08-25 10:00;81,4
2017-08-25 10:15;55,4
2017-08-25 10:30;52,75
2017-08-25 10:45;77,6
2017-08-25 11:00;85,4
2017-08-25 11:15;63,35
2017-08-25 11:30;67,7
2017-08-25 11:45;65,95
2017-08-25 12:00;77,7
2017-08-25 12:15;69,95
2017-08-25 12:30;62,4
2017-08-25 12:45;58,85
2017-08-25 13:00;58,85
2017-08-25 13:15;76,4
2017-08-25 13:30;92
2017-08-25 13:45;73,75
2017-08-25 14:00;66,35
2017-08-25 14:15;63,3
2017-08-25 14:30;70,9
2017-08-25 14:45;64,85
2017-08-25 15:00;69,3
2017-08-25 15:15;59,2
2017-08-25 15:30;53,65
2017-08-25 15:45;55,85
2017-08-25 16:00;51,6
2017-08-25 16:15;53,45
2017-08-25 16:30;53,7
2017-08-25 16:45;55,3
2017-08-25 17:00;50,95
2017-08-25 17:15;49,5
2017-08-25 17:30;47,75
2017-08-25 17:45;43,95
2017-08-25 18:00;43,6
2017-08-25 18:15;39,4
2017-08-25 18:30;39,55
2017-08-25 18:45;37,6
2017-08-25 19:00;37,45
2017-08-25 19:15;35,55
2017-08-25 19:30;33,85
2017-08-25 19:45;35,3
2017-08-25 20:00;34,3
2017-08-25 20:15;29,15
2017-08-25 20:30;24
2017-08-25 20:45;24,5
2017-08-25 21:00;26,15
2017-08-25 21:15;25,25
2017-08-25 21:30;23,7
2017-08-25 21:45;23,85
2017-08-25 22:00;20,45
2017-08-25 22:15;26,65
2017-08-25 22:30;27,8
2017-08-25 22:45;25,25
2017-08-25 23:00;23
2017-08-25 23:15;17,75
2017-08-25 23:30;16,45
2017-08-25 23:45;16,8
2017-08-26 00:00;18,35
2017-08-26 00:15;11,1
2017-08-26 00:30;8,55
2017-08-26 00:45;9,65
2017-08-26 01:00;10,5
2017-08-26 01:15;10
2017-08-26 01:30;8,85
2017-08-26 01:45;9,15
2017-08-26 02:00;10,1
2017-08-26 02:15;9,55
2017-08-26 02:30;13,2
2017-08-26 02:45;13,55
2017-08-26 03:00;11,15
2017-08-26 03:15;12,9
2017-08-26 03:30;11,9
2017-08-26 03:45;12,55
2017-08-26 04:00;13,85
2017-08-26 04:15;14,45
2017-08-26 04:30;13,2
2017-08-26 04:45;10,6
2017-08-26 05:00;9,6
2017-08-26 05:15;9,05
2017-08-26 05:30;9,75
2017-08-26 05:45;9,75
2017-08-26 06:00;12,35
2017-08-26 06:15;10,75
2017-08-26 06:30;13
2017-08-26 06:45;12
2017-08-26 07:00;11,6
2017-08-26 07:15;5
2017-08-26 07:30;4,25
2017-08-26 07:45;5,3
2017-08-26 08:00;3,45
2017-08-26 08:15;3,05
2017-08-26 08:30;1,3
2017-08-26 08:45;4,55
2017-08-26 09:00;9,6
2017-08-26 09:15;12,2
2017-08-26 09:30;13,95
2017-08-26 09:45;14,05
2017-08-26 10:00;13,95
2017-08-26 10:15;12,35
2017-08-26 10:30;16,7
2017-08-26 10:45;21,3
2017-08-26 11:00;19,9
2017-08-26 11:15;20,9
2017-08-26 11:30;20
2017-08-26 11:45;21,4
2017-08-26 12:00;22,35
2017-08-26 12:15;19,75
2017-08-26 12:30;22,7
2017-08-26 12:45;22,35
2017-08-26 13:00;20,45
2017-08-26 13:15;20,4
2017-08-26 13:30;21,65
2017-08-26 13:45;21,55
2017-08-26 14:00;22,65
2017-08-26 14:15;23,15
2017-08-26 14:30;19,6
2017-08-26 14:45;20
2017-08-26 15:00;20,4
2017-08-26 15:15;19,65
2017-08-26 15:30;21,6
2017-08-26 15:45;22,3
2017-08-26 16:00;21,7
2017-08-26 16:15;23,35
2017-08-26 16:30;23,3
2017-08-26 16:45;24,9
2017-08-26 17:00;24,75
2017-08-26 17:15;23,75
2017-08-26 17:30;24,8
2017-08-26 17:45;24,55
2017-08-26 18:00;22,95
2017-08-26 18:15;23,65
2017-08-26 18:30;23
2017-08-26 18:45;23,45
2017-08-26 19:00;24,15
2017-08-26 19:15;22,65
2017-08-26 19:30;22,6
2017-08-26 19:45;23
2017-08-26 20:00;22,75
2017-08-26 20:15;23,65
2017-08-26 20:30;20,35
2017-08-26 20:45;20,35
2017-08-26 21:00;21,75
2017-08-26 21:15;23,8
2017-08-26 21:30;24,4
2017-08-26 21:45;24,55
2017-08-26 22:00;21,4
2017-08-26 22:15;24,05
2017-08-26 22:30;21,15
2017-08-26 22:45;16,05
2017-08-26 23:00;17,55
2017-08-26 23:15;12,25
2017-08-26 23:30;10,8
2017-08-26 23:45;12,85
2017-08-27 00:00;10,2
2017-08-27 00:15;9,65
2017-08-27 00:30;10,45
2017-08-27 00:45;10,7
2017-08-27 01:00;11,3
2017-08-27 01:15;10,35
2017-08-27 01:30;10,8
2017-08-27 01:45;9,25
2017-08-27 02:00;10,85
2017-08-27 02:15;10,15
2017-08-27 02:30;13,7
2017-08-27 02:45;12
2017-08-27 03:00;13,55
2017-08-27 03:15;13,05
2017-08-27 03:30;14,2
2017-08-27 03:45;13,7
2017-08-27 04:00;16,1
2017-08-27 04:15;16,2
2017-08-27 04:30;17,65
2017-08-27 04:45;18,25
2017-08-27 05:00;17,55
2017-08-27 05:15;16,95
2017-08-27 05:30;17,05
2017-08-27 05:45;16,15
2017-08-27 06:00;12,75
2017-08-27 06:15;14,85
2017-08-27 06:30;14,25
2017-08-27 06:45;16,45
2017-08-27 07:00;15,1
2017-08-27 07:15;13,3
2017-08-27 07:30;14,2
2017-08-27 07:45;11,7
2017-08-27 08:00;11
2017-08-27 08:15;11,05
2017-08-27 08:30;12
2017-08-27 08:45;10,1
2017-08-27 09:00;9,75
2017-08-27 09:15;9,8
2017-08-27 09:30;7,65
2017-08-27 09:45;7,55
2017-08-27 10:00;6,7
2017-08-27 10:15;7,5
2017-08-27 10:30;5,8
2017-08-27 10:45;4,9
2017-08-27 11:00;5
2017-08-27 11:15;4,2
2017-08-27 11:30;5,15
2017-08-27 11:45;5,45
2017-08-27 12:00;7,5
2017-08-27 12:15;10,15
2017-08-27 12:30;9,65
2017-08-27 12:45;10,4
2017-08-27 13:00;10,1
2017-08-27 13:15;8,5
2017-08-27 13:30;7,1
2017-08-27 13:45;9,3
2017-08-27 14:00;9,7
2017-08-27 14:15;8,75
2017-08-27 14:30;10,95
2017-08-27 14:45;8,55
2017-08-27 15:00;11,95
2017-08-27 15:15;11,1
2017-08-27 15:30;19,05
2017-08-27 15:45;18,35
2017-08-27 16:00;19,5
2017-08-27 16:15;20,95
2017-08-27 16:30;22,4
2017-08-27 16:45;21,75
2017-08-27 17:00;21,95
2017-08-27 17:15;23,05
2017-08-27 17:30;22
2017-08-27 17:45;22
2017-08-27 18:00;20
2017-08-27 18:15;19,2
2017-08-27 18:30;16,25
2017-08-27 18:45;15,8
2017-08-27 19:00;16,35
2017-08-27 19:15;16,5
2017-08-27 19:30;16,8
2017-08-27 19:45;17,5
2017-08-27 20:00;15,2
2017-08-27 20:15;17
2017-08-27 20:30;18,7
2017-08-27 20:45;19,1
2017-08-27 21:00;19,6
2017-08-27 21:15;19,5
2017-08-27 21:30;19,55
2017-08-27 21:45;21,35
2017-08-27 22:00;20,05
2017-08-27 22:15;22,05
2017-08-27 22:30;22,9
2017-08-27 22:45;10,95
2017-08-27 23:00;14,15
2017-08-27 23:15;10,6
2017-08-27 23:30;8,7
2017-08-27 23:45;9,45

